When you browse on this site, cookies collect data to enhance your experience and personalize the content and advertising you see.
Visit our Privacy Policy to learn more. By continuing to use the site, you agree to this use of cookies and data.
  • In Switzerland
  • List of Countries
  • For 7 days
  • Water Temperature
  • Satellite Maps
  • Weather Map
  • Weather Widgets
  • user-avatar
    Login

    Hourly Weather Adelaide

    Today, 23 March, Saturday

    Time Temperature Precipitation Wind Pressure Humidity
    00:00 +25°C° 0 mm 2 mps 753 mmHg 63%
    01:00 +25°C° 0 mm 2 mps 753 mmHg 65%
    02:00 +24°C° 0 mm 2 mps 752 mmHg 68%
    03:00 +23°C° 0 mm 1 mps 752 mmHg 76%
    04:00 +22°C° 0 mm 1 mps 752 mmHg 78%
    05:00 +21°C° 0 mm 2 mps 753 mmHg 80%
    06:00 +21°C° 0 mm 2 mps 753 mmHg 82%
    07:00 +22°C° 0 mm 3 mps 753 mmHg 75%
    08:00 +24°C° 0 mm 3 mps 753 mmHg 68%
    09:00 +25°C° 0 mm 3 mps 754 mmHg 65%
    10:00 +25°C° 0 mm 3 mps 754 mmHg 60%
    11:00 +26°C° 0 mm 3 mps 754 mmHg 56%
    12:00 +27°C° 0 mm 4 mps 754 mmHg 51%
    13:00 +27°C° 0 mm 4 mps 754 mmHg 51%
    14:00 +27°C° 0 mm 4 mps 754 mmHg 51%
    15:00 +26°C° 0 mm 2 mps 754 mmHg 55%
    16:00 +25°C° 0 mm 2 mps 754 mmHg 58%
    17:00 +24°C° 0 mm 2 mps 754 mmHg 61%
    18:00 +23°C° 0 mm 2 mps 755 mmHg 63%
    19:00 +23°C° 0 mm 2 mps 755 mmHg 67%
    20:00 +21°C° 0 mm 2 mps 755 mmHg 71%
    21:00 +21°C° 0 mm 2 mps 755 mmHg 74%
    22:00 +20°C° 0 mm 2 mps 755 mmHg 77%
    23:00 +21°C° 0 mm 1 mps 755 mmHg 80%

    Tomorrow, 24 March, Sunday

    Time Temperature Precipitation Wind Pressure Humidity
    00:00 +21°C° 0 mm 1 mps 755 mmHg 82%
    01:00 +21°C° 0 mm 1 mps 754 mmHg 84%
    02:00 +20°C° 0 mm 1 mps 754 mmHg 86%
    03:00 +18°C° 0 mm 0 mps 754 mmHg 87%
    04:00 +18°C° 0 mm 0 mps 754 mmHg 88%
    05:00 +18°C° 0 mm 0 mps 753 mmHg 88%
    06:00 +18°C° 0 mm 0 mps 753 mmHg 89%
    07:00 +21°C° 0 mm 1 mps 753 mmHg 80%
    08:00 +23°C° 0 mm 2 mps 753 mmHg 71%
    09:00 +25°C° 0 mm 2 mps 753 mmHg 62%
    10:00 +26°C° 0 mm 3 mps 752 mmHg 58%
    11:00 +27°C° 0 mm 4 mps 752 mmHg 55%
    12:00 +28°C° 0 mm 5 mps 751 mmHg 51%
    13:00 +27°C° 0 mm 5 mps 751 mmHg 54%
    14:00 +27°C° 0 mm 6 mps 750 mmHg 57%
    15:00 +26°C° 0 mm 7 mps 750 mmHg 60%
    16:00 +24°C° 0 mm 7 mps 750 mmHg 61%
    17:00 +23°C° 0 mm 7 mps 750 mmHg 63%
    18:00 +22°C° 0 mm 7 mps 750 mmHg 64%
    19:00 +21°C° 0 mm 8 mps 751 mmHg 64%
    20:00 +21°C° 0 mm 8 mps 751 mmHg 64%
    21:00 +20°C° 0 mm 8 mps 752 mmHg 64%
    22:00 +20°C° 0.1 mm 8 mps 752 mmHg 63%
    23:00 +18°C° 0.1 mm 9 mps 752 mmHg 62%

    Day after tomorrow, 25 March, Monday

    Time Temperature Precipitation Wind Pressure Humidity
    00:00 +18°C° 0.1 mm 9 mps 753 mmHg 61%
    01:00 +17°C° 0.1 mm 8 mps 753 mmHg 62%
    02:00 +17°C° 0.1 mm 8 mps 753 mmHg 63%
    03:00 +16°C° 0.1 mm 7 mps 753 mmHg 64%
    04:00 +16°C° 0.1 mm 7 mps 754 mmHg 63%
    05:00 +15°C° 0.1 mm 7 mps 754 mmHg 62%
    06:00 +15°C° 0.1 mm 7 mps 755 mmHg 61%
    07:00 +15°C° 0.1 mm 7 mps 756 mmHg 59%
    08:00 +15°C° 0.1 mm 6 mps 757 mmHg 58%
    09:00 +16°C° 0.1 mm 6 mps 757 mmHg 57%
    10:00 +16°C° 0.1 mm 6 mps 758 mmHg 53%
    11:00 +17°C° 0.1 mm 6 mps 758 mmHg 50%
    12:00 +17°C° 0.1 mm 6 mps 758 mmHg 46%
    13:00 +17°C° 0 mm 6 mps 758 mmHg 46%
    14:00 +17°C° 0 mm 6 mps 758 mmHg 45%
    15:00 +17°C° 0 mm 6 mps 758 mmHg 45%
    16:00 +16°C° 0 mm 5 mps 759 mmHg 47%
    17:00 +15°C° 0 mm 5 mps 760 mmHg 49%
    18:00 +15°C° 0 mm 4 mps 760 mmHg 52%
    19:00 +14°C° 0 mm 4 mps 761 mmHg 54%
    20:00 +14°C° 0 mm 3 mps 762 mmHg 57%
    21:00 +13°C° 0 mm 3 mps 763 mmHg 60%
    22:00 +14°C° 0 mm 2 mps 763 mmHg 61%
    23:00 +14°C° 0 mm 2 mps 763 mmHg 62%

    26 March, Tuesday

    Time Temperature Precipitation Wind Pressure Humidity
    00:00 +14°C° 0 mm 2 mps 763 mmHg 63%
    01:00 +14°C° 0 mm 2 mps 763 mmHg 63%
    02:00 +14°C° 0 mm 2 mps 763 mmHg 63%
    03:00 +13°C° 0 mm 3 mps 763 mmHg 62%
    04:00 +14°C° 0 mm 2 mps 763 mmHg 64%
    05:00 +14°C° 0 mm 2 mps 764 mmHg 65%
    06:00 +14°C° 0 mm 2 mps 764 mmHg 66%
    07:00 +15°C° 0 mm 2 mps 765 mmHg 61%
    08:00 +17°C° 0 mm 3 mps 765 mmHg 56%
    09:00 +18°C° 0 mm 3 mps 765 mmHg 51%
    10:00 +19°C° 0 mm 3 mps 765 mmHg 49%
    11:00 +19°C° 0 mm 3 mps 765 mmHg 48%
    12:00 +20°C° 0 mm 3 mps 765 mmHg 47%
    13:00 +20°C° 0 mm 3 mps 764 mmHg 48%
    14:00 +20°C° 0 mm 3 mps 764 mmHg 48%
    15:00 +20°C° 0 mm 3 mps 763 mmHg 49%
    16:00 +19°C° 0 mm 3 mps 764 mmHg 53%
    17:00 +19°C° 0 mm 3 mps 764 mmHg 56%
    18:00 +18°C° 0 mm 3 mps 764 mmHg 60%
    19:00 +17°C° 0 mm 3 mps 765 mmHg 63%
    20:00 +16°C° 0 mm 3 mps 765 mmHg 67%
    21:00 +16°C° 0 mm 3 mps 766 mmHg 70%
    22:00 +14°C° 0 mm 3 mps 765 mmHg 72%
    23:00 +15°C° 0 mm 2 mps 765 mmHg 74%

    27 March, Wednesday

    Time Temperature Precipitation Wind Pressure Humidity
    00:00 +15°C° 0 mm 2 mps 765 mmHg 76%
    01:00 +15°C° 0 mm 2 mps 765 mmHg 77%
    02:00 +14°C° 0 mm 2 mps 765 mmHg 79%
    03:00 +14°C° 0 mm 2 mps 764 mmHg 80%
    04:00 +14°C° 0 mm 2 mps 764 mmHg 80%
    05:00 +14°C° 0 mm 2 mps 765 mmHg 80%
    06:00 +14°C° 0 mm 2 mps 765 mmHg 80%
    07:00 +16°C° 0 mm 2 mps 765 mmHg 69%
    08:00 +18°C° 0 mm 2 mps 765 mmHg 58%
    09:00 +20°C° 0 mm 2 mps 765 mmHg 47%
    10:00 +23°C° 0 mm 2 mps 764 mmHg 42%
    11:00 +25°C° 0 mm 1 mps 764 mmHg 36%
    12:00 +27°C° 0 mm 1 mps 763 mmHg 31%
    13:00 +27°C° 0 mm 2 mps 762 mmHg 31%
    14:00 +27°C° 0 mm 2 mps 762 mmHg 31%
    15:00 +27°C° 0 mm 2 mps 761 mmHg 32%
    16:00 +25°C° 0 mm 3 mps 761 mmHg 37%
    17:00 +24°C° 0 mm 3 mps 761 mmHg 41%
    18:00 +21°C° 0 mm 3 mps 761 mmHg 46%
    19:00 +20°C° 0 mm 3 mps 761 mmHg 51%
    20:00 +19°C° 0 mm 3 mps 761 mmHg 56%
    21:00 +19°C° 0 mm 3 mps 761 mmHg 61%
    22:00 +18°C° 0 mm 3 mps 760 mmHg 62%
    23:00 +18°C° 0 mm 3 mps 760 mmHg 64%

    28 March, Thursday

    Time Temperature Precipitation Wind Pressure Humidity
    00:00 +17°C° 0 mm 2 mps 760 mmHg 66%
    01:00 +17°C° 0 mm 2 mps 759 mmHg 63%
    02:00 +17°C° 0 mm 2 mps 759 mmHg 59%
    03:00 +17°C° 0 mm 2 mps 759 mmHg 56%
    04:00 +17°C° 0 mm 2 mps 759 mmHg 51%
    05:00 +18°C° 0 mm 2 mps 759 mmHg 46%
    06:00 +18°C° 0 mm 2 mps 759 mmHg 42%
    07:00 +20°C° 0 mm 3 mps 759 mmHg 38%
    08:00 +22°C° 0 mm 3 mps 759 mmHg 34%
    09:00 +25°C° 0 mm 3 mps 759 mmHg 30%
    10:00 +26°C° 0 mm 3 mps 759 mmHg 30%
    11:00 +27°C° 0 mm 3 mps 758 mmHg 30%
    12:00 +28°C° 0 mm 3 mps 758 mmHg 30%
    13:00 +28°C° 0 mm 3 mps 757 mmHg 31%
    14:00 +27°C° 0 mm 3 mps 757 mmHg 33%
    15:00 +27°C° 0 mm 3 mps 756 mmHg 35%
    16:00 +26°C° 0 mm 3 mps 757 mmHg 41%
    17:00 +24°C° 0 mm 3 mps 757 mmHg 47%
    18:00 +22°C° 0 mm 3 mps 757 mmHg 53%
    19:00 +21°C° 0 mm 2 mps 757 mmHg 61%
    20:00 +19°C° 0 mm 2 mps 758 mmHg 69%
    21:00 +18°C° 0 mm 2 mps 758 mmHg 77%
    22:00 +18°C° 0 mm 2 mps 758 mmHg 80%
    23:00 +19°C° 0 mm 1 mps 758 mmHg 83%
    Show more